Regional Weather Roundup
Issued by NWS

Home | Current Version | Previous Version | Graphics & Text | Print | Product List | Glossary Off
Versions: 1 2 3 4 5 6 7 8 9 10 11 12 13 14 15 16 17 18 19 20 21 22 23 24 25 26 27 28 29 30 31 32 33 34 35 36 37 38 39 40 41 42 43 44 45 46 47 48 49 50

000
ASUS43 KMKX 311511
RWRWI

WISCONSIN REGIONAL WEATHER ROUNDUP
NATIONAL WEATHER SERVICE MILWAUKEE/SULLIVAN WI
1000 AM CDT FRI OCT 31 2014

NOTE: "FAIR" INDICATES FEW OR NO CLOUDS BELOW 12,000 FEET WITH NO
SIGNIFICANT WEATHER AND/OR OBSTRUCTIONS TO VISIBILITY.

WIZ001-002-006>008-014>016-023>028-311600-
NORTHWEST WISCONSIN

CITY           SKY/WX    TMP DP  RH WIND       PRES   REMARKS
SUPERIOR ARPT  SUNNY     31  20  63 NE7G16    30.57S WCI  24
ASHLAND        CLOUDY    32  22  66 N17       30.52R WCI  21
HAYWARD        CLOUDY    30  19  63 N8G22     30.50R WCI  22
SIREN          CLOUDY    31  18  59 N8        30.54S WCI  23
CUMBERLAND     PTSUNNY   30  18  59 N13G23    30.49S WCI  20
RICE LAKE      SUNNY     32  19  59 N12G20    30.51R WCI  23
CHETEK         SUNNY     32  21  65 N10G18    30.49R WCI  23
LADYSMITH      SUNNY     32  24  71 N16G25    30.46R WCI  21
EAU CLAIRE     SUNNY     33  20  58 N13G24    30.48R WCI  24
MENOMONIE      SUNNY     33  19  58 N21G26    30.50R WCI  20
NEW RICHMOND   SUNNY     32  18  56 N18       30.51F WCI  20
OSCEOLA        MOSUNNY   31  19  60 N14G20    30.56S WCI  21
$$

WIZ003>005-009-010-017-018-311600-
NORTH CENTRAL WISCONSIN

CITY           SKY/WX    TMP DP  RH WIND       PRES   REMARKS
MANITOWISH WTR PTSUNNY   27  24  88 N9        30.40R WCI  17
ARBOR VITAE    FLURRIES  32  26  77 N12G20    30.38R WCI  23
WOODRUFF       FLURRIES  32  26  77 N12G20    30.38R WCI  23
RHINELANDER    CLOUDY    28  21  75 N13G22    30.37R WCI  17
EAGLE RIVER    FLURRIES  28  22  76 N13G23    30.37R WCI  17
LAND O LAKES   CLOUDY    29  24  81 N15G23    30.38R WCI  17
PHILLIPS       CLOUDY    28  24  82 N12G22    30.41R WCI  18
TOMAHAWK       CLOUDY    30  22  72 N13G18    30.39R WCI  20
MEDFORD        CLOUDY    31  21  68 N20G26    30.38R WCI  18
MERRILL        CLOUDY    30  22  72 N16G25    30.37R WCI  19
$$

WIZ029-030-035-036-043>047-311600-
CENTRAL WISCONSIN

CITY           SKY/WX    TMP DP  RH WIND       PRES   REMARKS
WAUSAU         PTSUNNY   30  20  66 N9G21     30.35R WCI  22
MOSINEE        CLOUDY    30  23  74 N22G28    30.36R WCI  17
MARSHFIELD     MOSUNNY   32  21  64 N17G24    30.37R WCI  21
STEVENS POINT  CLOUDY    31  20  65 N10G26    30.35R WCI  22
WAUPACA        CLOUDY    34  24  65 N21G28    30.33R WCI  23
WAUTOMA        CLOUDY    34  21  59 N18G32    30.33R WCI  23
WISC RAPIDS    MOSUNNY   33  21  61 N23G35    30.37R WCI  21
CAMP DOUGLAS   MOSUNNY   37  21  52 N22G29    30.37R WCI  27
$$

WIZ011>013-019>022-031-037>040-048>050-311600-
NORTHEAST WISCONSIN

CITY           SKY/WX    TMP DP  RH WIND       PRES   REMARKS
ANTIGO         CLOUDY    28  20  71 N21G35    30.33R WCI  15
SHAWANO        CLOUDY    35  23  61 N22G31    30.31R WCI  24
OCONTO         CLOUDY    34  23  63 N18G24    30.29R WCI  23
STURGEON BAY   CLOUDY    34  27  75 N24G35    30.24R WCI  21
GREEN BAY      CLOUDY    35  22  58 N29G38    30.28R WCI  22
MANITOWOC      LGT RAIN  35  28  75 N22G31    30.21R WCI  23
APPLETON       PTSUNNY   34  19  55 N30G40    30.27R WCI  20
CLINTONVILLE   CLOUDY    34  21  60 N16G25    30.31R WCI  23
OSHKOSH        CLOUDY    35  21  56 N32G43    30.27R WCI  21
$$

WIZ032>034-041-042-053>061-311600-
SOUTHWEST WISCONSIN

CITY           SKY/WX    TMP DP  RH WIND       PRES   REMARKS
LA CROSSE      PTSUNNY   35  21  56 N21       30.45R WCI  24
SPARTA         MOSUNNY   34  20  57 N14G29    30.41R WCI  25
VIROQUA        CLOUDY    32  21  64 N18G25    30.38R WCI  21
BOSCOBEL       PTSUNNY   36  20  52 N15G28    30.39R WCI  27
PRAIRIE DU CHI MOSUNNY   35  19  52 NW14G23   30.40R WCI  25
PLATTEVILLE    PTSUNNY   36  22  56 N25G36    30.33R WCI  24
$$

WIZ056-057-062-063-064-067-068-311600-
SOUTH CENTRAL WISCONSIN

CITY           SKY/WX    TMP DP  RH WIND       PRES   REMARKS
REEDSBURG      MOSUNNY   33  21  60 N23G29    30.33R WCI  21
BARABOO/DELLS  MOSUNNY   34  20  58 N18G30    30.32S WCI  23
LONE ROCK      MOSUNNY   41  19  41 N20G32    30.35R
MINERAL POINT  MOSUNNY   36  19  51 N22G30    30.31R WCI  24
MADISON        PTSUNNY   34  22  61 N22G33    30.30R WCI  22
MIDDLETON      PTSUNNY   36  22  57 N21G29    30.30R WCI  24
WATERTOWN      CLOUDY    33  26  75 N15G25    30.24R WCI  23
MONROE         MOSUNNY   36  23  60 N20G33    30.26R WCI  25
JANESVILLE     PTSUNNY   37  23  56 N20G33    30.23R WCI  27
$$

WIZ051-052-058>065-066-070>072-311600-
SOUTHEAST WISCONSIN

CITY           SKY/WX    TMP DP  RH WIND       PRES   REMARKS
MILWAUKEE      FLURRIES  35  25  66 NW24G38   30.16R WCI  23
WAUKESHA       CLOUDY    34  21  60 N18G37    30.20R WCI  23
MILWAUKEE/TIMM CLOUDY    34  23  64 N22G38    30.18R WCI  22
RACINE         CLOUDY    36  25  64 N24G38    30.16R WCI  24
BURLINGTON     CLOUDY    34  24  68 N20G31    30.19R WCI  22
KENOSHA        CLOUDY    36  26  67 N24G37    30.15R WCI  24
FOND DU LAC    CLOUDY    35  21  56 N29G38    30.27R WCI  22
SHEBOYGAN      CLOUDY    35  23  61 N28G40    30.19R WCI  22
WEST BEND      CLOUDY    32  23  69 N17G31    30.20R WCI  21
JUNEAU         CLOUDY    33  22  64 N30G36    30.25R WCI  19
$$

LSZ147-162-311600-
LAKE SUPERIOR

STATION/POSITION TIME  TEMP    WIND        PRES    WAVE
                       AIR SEA DIR/SP/G            HT/PER
                 (UTC) (F)     (DEG/KT/KT) (MB)    (FT/S)
W MID LAKE BUOY  1450   33 43  360/ 19/ 23 1033.4R   8/ 8
DEVILS ISLAND    1500   33      10/ 20/ 25 1035.2R
PORT WING        1400   33      10/ 20/ 24 1034.2R
SAXON HARBOR     1400   36     360/ 20/ 25 1031.8
$$

LMZ867-665-643>646-311600-
LAKE MICHIGAN

STATION/POSITION TIME  TEMP    WIND        PRES    WAVE
                       AIR SEA DIR/SP/G            HT/PER
                 (UTC) (F)     (DEG/KT/KT) (MB)    (FT/S)
CHAMBERS ISLAND  1400   36     340/ 31/ 37 1024.0R
N MID LAKE BUOY  1450   36 49   10/ 31/ 39 1022.9R   9/ 7
NORTHPORT PIER   1507   36     360/ 29/ 32 1024.7R
SISTER BAY       1328          360/ 32/ 44   N/A
ALGOMA LAKESHORE 1312           10/ 20/ 30   N/A
KEWAUNEE LAKESHO 1400   32      10/ 16/ 26 1021.9R
SHEBOYGAN LAKESH 1500   36 48  360/ 36/ 44 1023.0R
PORT WASHINGTON  1408   36     340/ 14/ 25 1022.0R
ATWATER BUOY     1500   40      10/ 29     1021.5R
MILWAUKEE LAKESH 1400   36     340/ 20/ 27   N/A
S MID LAKE BUOY  1450   39 52  330/ 39/ 51 1015.9F  17/ 9
KENOSHA   LAKESH 1500   37     340/ 27/ 40 1020.0R
$$

TC  - TEMPERATURE IN CELSIUS
VSB - VISIBILITY IN STATUTE MILES
WCI - WIND CHILL INDEX
HX  - HEAT INDEX




USA.gov is the U.S. government's official web portal to all federal, state and local government web resources and services.